Location: Walnut Hills Mobile Home Park
(34.0445°N, 117.8184°W)
Time: 04:09:23
(UTC+00:00)

Cosmos 2297 Rocket - Pass Details

Date: 17 December 2025
Orbit: 837 x 844 km, 71.0° (Epoch: 21 January)

Event Time Altitude Azimuth Distance (km) Brightness Sun altitude
Rises 14:03:46 0° 205° (SSW) 3,374 5.3 -9.7°
Reaches altitude 10° 14:06:12 10° 208° (SSW) 2,444 4.6 -9.2°
Maximum altitude 14:11:48 71° 292° (WNW) 887 2.2 -8.2°
Drops below altitude 10° 14:17:26 10° 16° (NNE) 2,463 4.6 -7.1°
Sets 14:19:54 0° 19° (NNE) 3,402 5.3 -6.6°
